Orbital Elements at Epoch 2459000.5 (2020-May-31.0) TDB
Reference: JPL 33 (heliocentric ecliptic J2000)
Element | Value | Uncertainty (1-sigma) | Units |
e | .06467683278166064 | 5.4765e-08 | |
a | 2.916119778707252 | 1.3845e-08 | au |
q | 2.727514387408509 | 1.5711e-07 | au |
i | 1.300539598349235 | 6.3502e-06 | deg |
node | 207.6340062726623 | 0.00017373 | deg |
peri | 102.8664615691593 | 0.00018075 | deg |
M | 101.0447498799258 | 5.0858e-05 | deg |
tp | 2458489.974173491247 (2019-Jan-06.47417349) | 0.00025651 | TDB |
period | 1818.890123054911 4.98 | 1.2953e-05 3.546e-08 | d yr |
n | .1979228956366882 | 1.4095e-09 | deg/d |
Q | 3.104725170005994 | 1.474e-08 | au |
|
| | Orbit Determination Parameters
Additional Information
|